Weather History for KOWB - June, 2013

Change the Weather History Date:

Monday, June 10, 2013

  Actual Average Record
Temperature  
Mean Temperature 72 °F -  
Max Temperature 78 °F 84 °F - (-1)
Min Temperature 66 °F 62 °F - (-1)
Cooling Degree Days 7    
Growing Degree Days 22 (Base 50)    
Moisture  
Dew Point 67 °F    
Average Humidity 93    
Maximum Humidity 100    
Minimum Humidity 66    
Precipitation  
Precipitation 0.51 in - - ()
Sea Level Pressure  
Sea Level Pressure 29.87 in    
Wind  
Wind Speed 7 mph (SW)    
Max Wind Speed 12 mph    
Max Gust Speed -    
Visibility 7 miles    
Events Rain , Thunderstorm    
Averages and records for this station are not official NWS values.
T = Trace of Precipitation, MM = Missing Value Source: NWS Daily Summary

Daily Weather History Graph

Daily Weather History Graph

Search for Another Location

Airport or City:

Trip Planner

Search our weather history database for the weather conditions in past years. The results will help you decide how hot, cold, wet, or windy it might be!

Date:

Astronomy

Jun. 10, 2013 Rise Set
Actual Time 5:26 AM CDT 8:10 PM CDT
Civil Twilight 4:55 AM CDT 8:41 PM CDT
Nautical Twilight 4:16 AM CDT 9:20 PM CDT
Astronomical Twilight 3:32 AM CDT 10:04 PM CDT
Moon 7:13 AM CDT (6/10) 9:38 PM CDT (6/10)
Length of Visible Light 15h 46m
Length of Day
14h 43m
Waxing Crescent, 4% of the Moon is Illuminated
Jun 10
Waxing Crescent
Jun 16
First Quarter
Jun 23
Full
Jun 29
Last Quarter
Jul 8
New

Hourly Weather History & Observations

Time (CDT) Temp. Dew Point Humidity Pressure Visibility Wind Dir Wind Speed Gust Speed Precip Events Conditions
12:24 AM 68.0 °F 68.0 °F 100% 29.87 in 10.0 mi South 5.8 mph - 0.01 in Rain Light Rain
12:29 AM 68.0 °F 68.0 °F 100% 29.87 in 10.0 mi South 8.1 mph - 0.01 in Rain Light Rain
12:56 AM 68.0 °F 68.0 °F 100% 29.86 in 6.0 mi SSW 9.2 mph - 0.01 in Rain Light Rain
1:56 AM 68.0 °F 68.0 °F 100% 29.83 in 10.0 mi SSW 6.9 mph - 0.02 in   Mostly Cloudy
2:20 AM 68.0 °F 68.0 °F 100% 29.83 in 10.0 mi SSW 10.4 mph - N/A   Mostly Cloudy
2:35 AM 68.0 °F 68.0 °F 100% 29.83 in 10.0 mi SSW 5.8 mph - N/A   Mostly Cloudy
2:42 AM 66.2 °F 66.2 °F 100% 29.82 in 10.0 mi SSW 8.1 mph - N/A   Scattered Clouds
2:56 AM 66.9 °F 66.9 °F 100% 29.82 in 10.0 mi SW 8.1 mph - N/A   Scattered Clouds
3:10 AM 68.0 °F 68.0 °F 100% 29.82 in 10.0 mi SW 6.9 mph - N/A   Mostly Cloudy
3:49 AM 68.0 °F 68.0 °F 100% 29.83 in 10.0 mi SW 8.1 mph - N/A   Overcast
3:56 AM 68.0 °F 68.0 °F 100% 29.82 in 10.0 mi SW 8.1 mph - N/A   Overcast
4:35 AM 68.0 °F 68.0 °F 100% 29.83 in 10.0 mi SW 6.9 mph - N/A   Overcast
4:56 AM 66.9 °F 66.9 °F 100% 29.82 in 8.0 mi SW 6.9 mph - N/A   Mostly Cloudy
5:29 AM 66.2 °F 66.2 °F 100% 29.84 in 9.0 mi WSW 10.4 mph - N/A   Overcast
5:56 AM 66.9 °F 66.9 °F 100% 29.85 in 5.0 mi WSW 6.9 mph - N/A   Overcast
6:56 AM 68.0 °F 66.9 °F 96% 29.86 in 5.0 mi WSW 8.1 mph - N/A   Overcast
7:56 AM 68.9 °F 68.0 °F 97% 29.88 in 4.0 mi SW 8.1 mph - N/A   Overcast
8:56 AM 70.0 °F 66.9 °F 90% 29.90 in 6.0 mi WSW 10.4 mph - N/A   Haze
9:30 AM 69.8 °F 66.2 °F 88% 29.91 in 6.0 mi WSW 11.5 mph - N/A Thunderstorm Unknown
9:44 AM 69.8 °F 66.2 °F 88% 29.90 in 2.5 mi SW 6.9 mph - 0.02 in Rain Heavy Rain
9:46 AM 69.8 °F 66.2 °F 88% 29.90 in 3.0 mi SW 4.6 mph - 0.03 in Rain Heavy Rain
9:56 AM 68.9 °F 68.0 °F 97% 29.88 in 3.0 mi SSE 5.8 mph - 0.05 in Rain Rain
10:56 AM 68.9 °F 68.0 °F 97% 29.89 in 3.0 mi South 6.9 mph - 0.02 in Rain Rain
10:59 AM 69.8 °F 69.8 °F 100% 29.89 in 2.0 mi South 5.8 mph - 0.00 in Rain Rain
11:00 AM 69.8 °F 69.8 °F 100% 29.89 in 2.0 mi South 5.8 mph - 0.01 in Rain Rain
11:12 AM 69.8 °F 69.8 °F 100% 29.90 in 3.0 mi South 8.1 mph - 0.02 in Rain Light Rain
11:56 AM 66.9 °F 65.8 °F 96% 29.89 in 3.0 mi Calm Calm - 0.13 in Rain Rain
12:06 PM 66.2 °F 66.2 °F 100% 29.89 in 2.0 mi Calm Calm - 0.06 in Rain Heavy Rain
12:16 PM 66.2 °F 66.2 °F 100% 29.89 in 2.0 mi NE 3.5 mph - 0.10 in Rain Heavy Rain
12:17 PM 66.2 °F 66.2 °F 100% 29.88 in 3.0 mi NE 3.5 mph - 0.10 in Rain Heavy Rain
12:19 PM 66.2 °F 66.2 °F 100% 29.89 in 3.0 mi NE 3.5 mph - 0.10 in Rain Light Rain
12:26 PM 66.2 °F 66.2 °F 100% 29.89 in 1.2 mi Calm Calm - 0.16 in Rain Heavy Rain
12:56 PM 68.0 °F 68.0 °F 100% 29.88 in 3.0 mi Variable 3.5 mph - 0.28 in Rain Light Rain
1:11 PM 69.8 °F 66.2 °F 88% 29.89 in 7.0 mi East 3.5 mph - 0.00 in   Mostly Cloudy
1:56 PM 73.9 °F 68.9 °F 84% 29.85 in 10.0 mi SSE 9.2 mph - 0.00 in   Mostly Cloudy
2:56 PM 77.0 °F 68.9 °F 76% 29.84 in 10.0 mi SW 3.5 mph - N/A   Scattered Clouds
3:48 PM 78.8 °F 69.8 °F 74% 29.84 in 10.0 mi WSW 6.9 mph - N/A   Mostly Cloudy
3:56 PM 77.0 °F 68.9 °F 76% 29.84 in 10.0 mi WNW 8.1 mph - N/A   Mostly Cloudy
4:56 PM 77.9 °F 65.8 °F 66% 29.85 in 10.0 mi West 10.4 mph - N/A   Scattered Clouds
5:56 PM 75.9 °F 63.9 °F 66% 29.86 in 10.0 mi WNW 9.2 mph - N/A   Mostly Cloudy
6:56 PM 77.0 °F 65.8 °F 68% 29.87 in 10.0 mi WNW 5.8 mph - N/A   Mostly Cloudy
7:56 PM 73.9 °F 65.8 °F 76% 29.88 in 10.0 mi NW 5.8 mph - N/A   Clear
8:56 PM 70.0 °F 65.8 °F 87% 29.90 in 10.0 mi West 3.5 mph - N/A   Clear
9:56 PM 68.9 °F 66.9 °F 93% 29.92 in 10.0 mi SSW 3.5 mph - N/A   Clear
10:56 PM 68.0 °F 66.9 °F 96% 29.93 in 10.0 mi Calm Calm - N/A   Clear
11:56 PM 66.9 °F 66.9 °F 100% 29.94 in 10.0 mi Calm Calm - N/A   Clear